FLOCK 4G 31

导读

FLOCK 4G 31是美国Planet Labs公司运营的一颗对地观测卫星,属于FLOCK 4G星座,于2025年1月14日发射升空,运行在近地轨道。它是一颗小型光学遥感卫星,具备成本低、部署快的优势,主要承担高分辨率对地成像任务,可服务于环境监测、农业估产、城市规划与灾害应急响应等领域,是全球商业地球观测网络的重要组成部分。

基本信息
目录编号:
62652
目录名称:
FLOCK 4G 31
国际标识:
2025-009AV
轨道中心:
EARTH
卫星名称:
FLOCK 4G 31
卫星全名:
FLOCK 4G 31
卫星状态:
在轨 (已飞行599 天)
发射日期:
2025-01-14 UTC
国别 :
美国 (US)
星等 :
--
轨道信息
数据来源 国际轨道数据
星历时间: 2026-09-04T12:03:07+0800
1天前
查看轨道信息
半长轴: 6852.578km
偏心率: 0.000266
轨道倾角: 97.392°
近地点辐角 70.867°
升交点赤经 328.349°
平近点角 289.286°
近地点: 472.618km
远地点: 476.264km
周期: 94.089分钟
每日圈数: 15.304593
详细信息
使用方式:
暂无
2D轨道图
3D轨道图
轨道高度分析图
轨道倾角分析图
轨道综合分析图
查看轨道综合分析图
交会数据列表
事件ID 空间交会对象 最接近时刻(TCA) 交会距离 交会风险概率(CRP) 交会风险指数(CRI) 操作
CDM_260907-061406-265206-488021
OBJECT E (64880)
2026-09-07T
06:14:26+0000
0.899 km
远距离
3.464307E-5 中风险 0.66
CDM_260906-185805-369206-265222
2026-09-06T
18:58:34+0000
1.085 km
极远距离
2.076519E-5 中风险 0.61
CDM_260905-214706-213606-265221
2026-09-05T
21:47:45+0000
2.019 km
极远距离
2.623335E-6 低风险 0.43
CDM_260907-064605-611006-265221
2026-09-07T
06:46:03+0000
2.735 km
极远距离
1.384148E-6 低风险 0.38